Hourly Data Report for April 25, 2021

KUGAARUK CLIMATE
NUNAVUT
Current Station Operator: ECCC - MSC

68°32'15.060" N
89°47'47.020" W
15.80 m
2303094
71407
NBB

Download Data

Hourly Data (April 2021)
Hourly Data Report for April 25, 2021
TIME
LST
Temp Definition
°C
Dew Point Definition
°C
Rel Hum Definition
%
Precip. Amount Definition
mm

Wind Dir Definition
10's deg

Wind Spd Definition
km/h
Visibility Definition
km
Stn Press Definition
kPa
Hmdx Definition


Wind Chill Definition


Weather Definition


00:00 -16.1 -19.6 74 0.0 15 1   101.47   -17 LegendNANA
01:00 -16.1 -19.1 77 0.0 24 7   101.50   -21 LegendNANA
02:00 -16.1 -19.3 76 0.0 26 11   101.54   -23 LegendNANA
03:00 -16.3 -19.2 78 0.0 24 9   101.58   -22 LegendNANA
04:00 -16.2 -19.1 78 0.0 24 8   101.64   -22 LegendNANA
05:00 -16.1 -19.1 78 0.0 24 10   101.71   -23 LegendNANA
06:00 -15.9 -19.7 73 0.0 26 9   101.73   -22 LegendNANA
07:00 -15.6 -20.0 69 0.0 27 6   101.78   -20 LegendNANA
08:00 -15.6 -20.5 66 0.0 26 8   101.80   -21 LegendNANA
09:00 -15.3 -20.5 64 0.0 26 8   101.84   -21 LegendNANA
10:00 -15.1 -20.8 61 0.0 27 10   101.86   -21 LegendNANA
11:00 -14.7 -21.3 57 0.0 27 10   101.88   -21 LegendNANA
12:00 -14.6 -20.7 60 0.0 27 12   101.90   -21 LegendNANA
13:00 -14.1 -19.4 64 0.0 32 10   101.94   -20 LegendNANA
14:00 -13.9 -19.2 64 0.0 33 8   101.96   -19 LegendNANA
15:00 -14.0 -18.9 66 0.0 31 11   101.98   -20 LegendNANA
16:00 -13.8 -18.3 69 0.0 33 13   101.99   -21 LegendNANA
17:00 -13.6 -17.9 70 0.0 33 14   101.99   -21 LegendNANA
18:00 -13.9 -18.0 71 0.0 34 15   101.98   -22 LegendNANA
19:00 -14.0 -18.0 72 0.0 34 15   101.98   -22 LegendNANA
20:00 -14.1 -17.9 73 0.0 33 14   101.95   -22 LegendNANA
21:00 -14.4 -18.0 74 0.0 33 17   101.92   -23 LegendNANA
22:00 -14.9 -18.1 76 0.0 32 20   101.87   -24 LegendNANA
23:00 -15.5 -18.7 77 0.0 32 26   101.82   -26 LegendNANA

Notes on Data Quality.

Legend

  • E = Estimated
  • M = Missing
  • NA = Not Available*
  • [empty] = Indicates an unobserved value
Date modified: